Station ILOH1 - 1617760 - Hilo, HI Image indicating link to RSS feed of recent meteorological observations for station ILOH1


Conditions at ILOH1 as of
(6:18 am HAST)
1618 GMT on 04/20/2024:
     

Click on the graph icon in the table below to see a time series plot of the last five days of that observation.

5-day plot - Wind Direction Wind Direction (WDIR): N ( 10 deg true )
5-day plot - Wind Speed Wind Speed (WSPD): 4.1 kts
5-day plot - Wind Gust Wind Gust (GST): 7.0 kts
5-day plot - Atmospheric Pressure Atmospheric Pressure (PRES):30.06 in
5-day plot - Air Temperature Air Temperature (ATMP): 69.6 °F
5-day plot - Water Temperature Water Temperature (WTMP): 76.5 °F
5-day plot - Wind Speed at 10 Meters Wind Speed at 10 meters (WSPD10M): 3.9 kts
5-day plot - Wind Speed at 20 Meters Wind Speed at 20 meters (WSPD20M): 5.8 kts
5-day plot -  Wind Speed, Wind Gust and Atmospheric Pressure Combined plot of Wind Speed, Gust, and Air Pressure
NOS Water Level Observation Network Water Level
Previous observations
TIME
(HAST)
5-day plot - Wind Direction
WDIR
 
5-day plot - Wind Speed
WSPD
kts
5-day plot - Wind Gust
GST
kts
5-day plot - Wave Height
WVHT
ft
5-day plot - Dominant Wave Period
DPD
sec
5-day plot - Average Wave Period
APD
sec
5-day plot - Mean Wave Direction
MWD
 
5-day plot - Atmospheric Pressure
PRES
in
5-day plot - Pressure Tendency
PTDY
in
5-day plot - Air Temperature
ATMP
°F
5-day plot - Water Temperature
WTMP
°F
5-day plot - Dew Point
DEWP
°F
5-day plot - Salinity
SAL
psu
5-day plot - Visibility
VIS
nmi
5-day plot - Tide (above MLLW)
TIDE
ft
2024-04-20 06:12 amESE 2.9 7.0----30.06- 69.6 76.5----
2024-04-20 06:06 am E 1.9 5.1----30.06- 69.8 76.5----
2024-04-20 06:00 amNNE 1.0 6.0----30.06+0.01 69.6 76.5----
2024-04-20 05:54 amWNW 6.0 8.0----30.05- 69.4 76.5----
2024-04-20 05:48 amWNW 5.1 7.0----30.05- 69.3 76.5----
2024-04-20 05:42 am W 6.0 8.0----30.05- 68.7 76.5----
2024-04-20 05:36 amWNW 7.0 8.0----30.05- 68.9 76.5----
2024-04-20 05:30 amWNW 8.0 9.9----30.05- 68.9 76.5----
2024-04-20 05:24 amWNW 8.0 9.9----30.05- 68.9 76.5----
2024-04-20 05:18 am NW 8.0 8.9----30.04- 68.9 76.5----
2024-04-20 05:12 amWNW 7.0 8.0----30.04- 69.1 76.5----
2024-04-20 05:06 am NW 7.0 8.9----30.04- 69.1 76.5----
2024-04-20 05:00 am NW 7.0 8.0----30.04-0.01 69.3 76.5----
2024-04-20 04:54 amNNW 5.1 6.0----30.04- 69.3 76.5----
2024-04-20 04:48 am NE 2.9 4.1----30.04- 69.3 76.5----
2024-04-20 04:42 am NE 4.1 9.9----30.04- 69.1 76.3----
2024-04-20 04:36 amNNW 8.0 14.0----30.03- 69.1 76.3----
2024-04-20 04:30 am NW 8.9 11.1----30.03- 68.9 76.3----
2024-04-20 04:24 am NW 8.0 9.9----30.03- 68.9 76.3----
2024-04-20 04:18 amWNW 8.0 8.9----30.03- 68.9 76.3----
2024-04-20 04:12 amWNW 8.0 8.9----30.03- 68.7 76.3----
2024-04-20 04:06 amWNW 8.0 8.9----30.03- 68.7 76.3----
2024-04-20 04:00 amWNW 8.0 9.9----30.03-0.04 68.5 76.3----
2024-04-20 03:54 amWNW 7.0 8.0----30.03- 68.4 76.3----
2024-04-20 03:48 amWNW 7.0 8.0----30.03-- 76.3----
2024-04-20 03:42 am W 5.1 6.0----30.03-- 76.3----
2024-04-20 03:36 am W 5.1 6.0----30.03-- 76.3----
2024-04-20 03:30 am W 4.1 6.0----30.03- 68.4 76.3----
2024-04-20 03:24 am W 5.1 5.1----30.03- 68.4 76.3----
2024-04-20 03:18 am W 4.1 5.1----30.03- 68.5 76.3----
2024-04-20 03:12 amWNW 4.1 4.1----30.03- 68.5 76.3----
2024-04-20 03:06 am W 4.1 4.1----30.04- 68.4 76.3----
2024-04-20 03:00 amWNW 1.0 1.9----30.04-0.04 68.7 76.3----
2024-04-20 02:54 am- 0.0 1.0----30.04- 68.7 76.3----
2024-04-20 02:48 am- 0.0 0.0----30.04- 68.7 76.5----
2024-04-20 02:42 am- 0.0 0.0----30.05- 68.9 76.5----
2024-04-20 02:36 am- 0.0 1.9----30.05- 68.9 76.5----
2024-04-20 02:30 am E 1.0 2.9----30.05- 69.1 76.5----
2024-04-20 02:24 am E 1.9 5.1----30.05- 69.1 76.5----
2024-04-20 02:18 am E 4.1 5.1----30.05- 68.9 76.5----
2024-04-20 02:12 am E 2.9 5.1----30.05- 69.1 76.5----
2024-04-20 02:06 am E 2.9 5.1----30.05- 68.9 76.5----
2024-04-20 02:00 am SE 2.9 5.1----30.06-0.05 69.1 76.5----
2024-04-20 01:54 am SE 4.1 5.1----30.06- 69.6 76.5----
2024-04-20 01:48 am SE 4.1 6.0----30.06- 69.8 76.5----
2024-04-20 01:42 am SE 2.9 4.1----30.06- 70.0 76.5----
2024-04-20 01:36 amSSE 1.0 2.9----30.06- 70.0 76.5----
2024-04-20 01:30 am S 1.9 1.9----30.06- 69.8 76.5----
2024-04-20 01:24 am- 0.0 1.0----30.06- 69.8 76.5----
2024-04-20 01:18 am- 0.0 2.9----30.06- 69.8 76.5----
2024-04-20 01:12 am- 0.0 1.9----30.06- 69.6 76.5----
2024-04-20 01:06 amSSW 1.0 2.9----30.07- 69.8 76.5----
2024-04-20 01:00 amSSW 1.9 2.9----30.07-0.04 69.8 76.6----
2024-04-20 12:54 am S 1.9 6.0----30.07- 69.8 76.6----
2024-04-20 12:48 am E 4.1 6.0----30.07- 69.4 76.6----
2024-04-20 12:42 am S 1.0 4.1----30.07- 70.0 76.6----
2024-04-20 12:36 amNNW 1.9 5.1----30.07- 69.8 76.6----
2024-04-20 12:30 amNNW 1.9 2.9----30.08-- 76.6----
2024-04-20 12:24 am- 0.0 1.9----30.08-- 76.6----
2024-04-20 12:18 amSSW 1.0 1.9----30.08- 69.6 76.5----
2024-04-20 12:12 am- 0.0 1.9----30.08- 69.8 76.3----
2024-04-20 12:06 am SW 1.0 2.9----30.09- 69.8 76.5----
2024-04-20 12:00 amSSW 1.9 4.1----30.09+0.00- 76.3----
2024-04-19 11:54 pm S 1.9 2.9----30.09-- 76.3----
2024-04-19 11:48 pm E 1.9 5.1----30.09- 70.0 76.3----
2024-04-19 11:42 pmESE 1.9 7.0----30.09- 69.8 76.5----
2024-04-19 11:36 pm E 4.1 8.0----30.09- 69.6 76.5----
2024-04-19 11:30 pm W 4.1 7.0----30.09- 69.3 76.5----
2024-04-19 11:24 pm S 2.9 4.1----30.09- 69.4 76.3----
2024-04-19 11:18 pm SW 1.9 5.1----30.09- 69.3 76.5----
2024-04-19 11:12 pmWSW 1.0 2.9----30.10- 69.1 76.3----
2024-04-19 11:06 pm NW 1.9 1.9----30.10- 69.1 76.3----
2024-04-19 11:00 pm- 0.0 1.0----30.10+0.03 69.1 76.3----
2024-04-19 10:54 pm- 0.0 0.0----30.10- 69.3 76.3----
2024-04-19 10:48 pm- 0.0 0.0----30.10- 69.3 76.5----
2024-04-19 10:42 pm- 0.0 0.0----30.10- 69.3 76.5----
2024-04-19 10:36 pm- 0.0 1.9----30.10- 69.3 76.5----
2024-04-19 10:30 pm- 0.0 1.9----30.10-- 76.5----
2024-04-19 10:24 pm SW 1.0 1.9----30.10-- 76.5----
2024-04-19 10:18 pm SW 1.0 1.9----30.10- 69.4 76.5----
2024-04-19 10:12 pm- 0.0 0.0----30.10- 69.4 76.5----
2024-04-19 10:06 pm- 0.0 1.0----30.10- 69.4 76.3----
2024-04-19 10:00 pm-------30.10+0.04- 76.5----
2024-04-19 09:54 pm-------30.10-- 76.3----
2024-04-19 09:48 pm- 0.0 1.9----30.10- 69.4 76.3----
2024-04-19 09:42 pmSSW 1.0 2.9----30.10- 69.4 76.3----
2024-04-19 09:36 pm W 1.9 2.9----30.10- 69.3 76.5----
2024-04-19 09:30 pm W 1.9 2.9----30.10- 69.4 76.5----
2024-04-19 09:24 pmWSW 1.9 2.9----30.10- 69.4 76.5----
2024-04-19 09:18 pmSSW 1.9 2.9----30.10- 69.4 76.5----
2024-04-19 09:12 pm SW 1.0 1.9----30.10- 69.4 76.5----
2024-04-19 09:06 pm- 0.0 5.1----30.09- 69.6 76.5----
2024-04-19 09:00 pm W 4.1 5.1----30.09+0.04 69.4 76.5----
2024-04-19 08:54 pm W 4.1 5.1----30.09- 69.6 76.5----
2024-04-19 08:48 pm W 6.0 7.0----30.09- 69.6 76.3----
2024-04-19 08:42 pmWNW 5.1 5.1----30.09- 70.0 76.5----
2024-04-19 08:36 pm NW 4.1 4.1----30.09- 70.3 76.3----
2024-04-19 08:30 pm N 4.1 5.1----30.09- 70.2 76.5----
2024-04-19 08:24 pmNNE 4.1 6.0----30.09- 70.5 76.5----
2024-04-19 08:18 pm N 5.1 6.0----30.08- 71.2 76.3----
2024-04-19 08:12 pm N 2.9 2.9----30.08- 71.6 76.3----
2024-04-19 08:06 pmWNW 1.9 1.9----30.07- 71.4 76.3----
2024-04-19 08:00 pmNNW 1.0 1.9----30.07+0.04 71.4 76.3----
2024-04-19 07:54 pm N 1.0 1.9----30.07- 71.4 76.3----
2024-04-19 07:48 pm N 1.9 2.9----30.07- 71.4 76.3----
2024-04-19 07:42 pm N 2.9 4.1----30.07- 71.4 76.3----
2024-04-19 07:36 pmNNE 1.9 5.1----30.07- 71.8 76.3----
2024-04-19 07:30 pmNNE 4.1 7.0----30.07- 72.1 76.3----
2024-04-19 07:24 pm N 6.0 8.0----30.07- 72.0 76.3----
2024-04-19 07:18 pm N 7.0 8.0----30.07- 72.3 76.5----
2024-04-19 07:12 pmNNW 7.0 8.0----30.07- 72.3 76.5----
2024-04-19 07:06 pmNNW 6.0 7.0----30.06- 72.0 76.5----
2024-04-19 07:00 pmNNW 6.0 6.0----30.06+0.03 71.8 76.5----
2024-04-19 06:54 pmNNW 5.1 6.0----30.06- 71.4 76.5----
2024-04-19 06:48 pm N 4.1 5.1----30.06- 71.8 76.5----
2024-04-19 06:42 pm N 4.1 6.0----30.06- 72.0 76.5----
2024-04-19 06:36 pm N 5.1 7.0----30.06- 72.0 76.5----
2024-04-19 06:30 pm N 5.1 8.0----30.06- 72.0 76.5----
2024-04-19 06:24 pm N 7.0 8.9----30.06- 72.3 76.3----
2024-04-19 06:18 pm N 7.0 9.9----30.05- 72.7 76.5----
2024-04-19 06:12 pm N 5.1 5.1----30.05- 73.8 76.5----
2024-04-19 06:06 pmNNW 1.9 2.9----30.05- 73.8 76.5----
2024-04-19 06:00 pm NW 2.9 2.9----30.05+0.00 73.6 76.3----
2024-04-19 05:54 pmWNW 2.9 4.1----30.05- 73.6 76.3----
2024-04-19 05:48 pmWNW 4.1 4.1----30.04- 73.4 76.3----
2024-04-19 05:42 pm W 2.9 4.1----30.04- 73.6 76.3----
2024-04-19 05:36 pm W 4.1 5.1----30.04- 73.4 76.3----
2024-04-19 05:30 pm W 4.1 5.1----30.04- 73.4 76.3----
2024-04-19 05:24 pm W 4.1 5.1----30.04- 73.4 76.3----
2024-04-19 05:18 pm W 4.1 5.1----30.03- 73.2 76.3----
2024-04-19 05:12 pm W 4.1 7.0----30.03- 73.0 76.3----
2024-04-19 05:06 pm W 5.1 7.0----30.03- 72.7 76.3----
2024-04-19 05:00 pm W 6.0 8.9----30.03-0.02 72.5 76.3----
2024-04-19 04:54 pm W 5.1 8.9----30.03- 72.7 76.3----
2024-04-19 04:48 pm W 6.0 8.0----30.03- 72.5 76.3----
2024-04-19 04:42 pm W 7.0 9.9----30.03- 72.5 76.3----
2024-04-19 04:36 pm W 7.0 8.0----30.03- 72.5 76.3----
2024-04-19 04:30 pm W 6.0 8.0----30.03- 72.7 76.3----
2024-04-19 04:24 pm W 5.1 6.0----30.03- 72.9 76.3----
2024-04-19 04:18 pm W 6.0 8.0----30.03- 72.3 76.3----
2024-04-19 04:12 pm W 7.0 8.9----30.03- 72.1 76.3----
2024-04-19 04:06 pm W 7.0 8.9----30.03- 72.0 76.3----
2024-04-19 04:00 pm W 7.0 8.0----30.04-0.04 71.8 76.3----
2024-04-19 03:54 pm W 7.0 8.9----30.04- 71.4 76.3----
2024-04-19 03:48 pm W 7.0 8.0----30.04- 71.1 76.3----
2024-04-19 03:42 pm W 6.0 8.0----30.04- 70.9 76.3----
2024-04-19 03:36 pm W 8.0 9.9----30.04- 70.5 76.3----
2024-04-19 03:30 pmWNW 8.0 9.9----30.04- 70.3 76.3----
2024-04-19 03:24 pmWNW 8.0 8.0----30.05- 70.5 76.3----
2024-04-19 03:18 pm NW 5.1 6.0----30.05- 71.1 76.3----
2024-04-19 03:12 pmNNW 5.1 6.0----30.05- 71.6 76.3----
2024-04-19 03:06 pmNNW 2.9 5.1----30.05- 71.6 76.3----
2024-04-19 03:00 pmNNW 4.1 5.1----30.05-0.05 71.2 76.3----
2024-04-19 02:54 pmNNW 2.9 4.1----30.05- 71.2 76.3----
2024-04-19 02:48 pmNNW 1.9 4.1----30.05- 71.4 76.3----
2024-04-19 02:42 pm NE 1.9 6.0----30.05- 72.1 76.3----
2024-04-19 02:36 pmENE 5.1 8.0----30.05- 71.8 76.3----
2024-04-19 02:30 pmENE 5.1 7.0----30.05- 72.0 76.3----
2024-04-19 02:24 pm E 6.0 8.9----30.06- 72.7 76.3----
2024-04-19 02:18 pmENE 7.0 15.0----30.06- 73.2 76.3----
2024-04-19 02:12 pmNNE 8.9 12.0----30.06- 73.2 76.3----
2024-04-19 02:06 pmNNW 6.0 7.0----30.05- 73.8 76.5----
2024-04-19 02:00 pmNNW 7.0 8.0----30.06-0.06 73.9 76.5----
2024-04-19 01:54 pmNNW 6.0 8.0----30.06- 73.8 76.5----
2024-04-19 01:48 pm N 6.0 8.9----30.06- 73.8 76.5----
2024-04-19 01:42 pmNNW 5.1 7.0----30.06- 73.8 76.5----
2024-04-19 01:36 pmNNW 5.1 7.0----30.06- 73.6 76.5----
2024-04-19 01:30 pmNNW 6.0 7.0----30.07- 73.6 76.3----
2024-04-19 01:24 pm N 4.1 6.0----30.07- 73.9 76.3----
2024-04-19 01:18 pm N 5.1 6.0----30.07- 73.9 76.5----
2024-04-19 01:12 pm N 5.1 5.1----30.07- 73.9 76.5----
2024-04-19 01:06 pm N 5.1 6.0----30.08- 73.9 76.5----
2024-04-19 01:00 pm N 5.1 6.0----30.08-0.04 73.9 76.5----
2024-04-19 12:54 pm N 5.1 6.0----30.08- 73.8 76.5----
2024-04-19 12:48 pmNNW 5.1 6.0----30.08- 73.9 76.5----
2024-04-19 12:42 pmNNW 6.0 7.0----30.08- 73.8 76.5----
2024-04-19 12:36 pm N 4.1 6.0----30.09- 73.9 76.5----
2024-04-19 12:30 pmNNW 5.1 6.0----30.09- 73.6 76.5----
2024-04-19 12:24 pm N 5.1 6.0----30.09- 74.1 76.5----
2024-04-19 12:18 pm N 5.1 6.0----30.09- 74.1 76.5----
2024-04-19 12:12 pmNNW 4.1 5.1----30.09- 73.8 76.5----
2024-04-19 12:06 pm N 5.1 6.0----30.09- 73.8 76.5----
2024-04-19 12:00 pmNNW 4.1 5.1----30.10-0.02 73.8 76.5----
2024-04-19 11:54 am NW 4.1 5.1----30.10- 73.8 76.5----
2024-04-19 11:48 am NW 4.1 5.1----30.11- 73.6 76.5----
2024-04-19 11:42 amWNW 2.9 5.1----30.11- 73.6 76.5----
2024-04-19 11:36 amWNW 4.1 5.1----30.11- 73.2 76.5----
2024-04-19 11:30 amWNW 4.1 5.1----30.11- 73.2 76.5----
2024-04-19 11:24 am W 5.1 6.0----30.11- 72.9 76.5----
2024-04-19 11:18 amWNW 5.1 6.0----30.11- 72.7 76.5----
2024-04-19 11:12 am W 4.1 5.1----30.11- 72.3 76.5----
2024-04-19 11:06 amWNW 5.1 5.1----30.11- 72.1 76.5----
2024-04-19 11:00 amWNW 5.1 7.0----30.11-0.01 72.0 76.5----
2024-04-19 10:54 amWNW 6.0 7.0----30.12- 71.4 76.5----
2024-04-19 10:48 amWNW 5.1 6.0----30.12- 71.1 76.5----
2024-04-19 10:42 am NW 5.1 7.0----30.12- 70.9 76.5----
2024-04-19 10:36 amNNW 6.0 8.9----30.12- 70.9 76.5----
2024-04-19 10:30 amNNW 8.0 8.9----30.12- 71.1 76.5----
2024-04-19 10:24 am NW 5.1 5.1----30.12- 72.5 76.5----
2024-04-19 10:18 am NW 1.9 5.1----30.12- 72.7 76.5----
2024-04-19 10:12 amWNW 2.9 4.1----30.12- 72.5 76.5----
2024-04-19 10:06 am W 1.9 2.9----30.12- 72.1 76.5----
2024-04-19 10:00 am W 2.9 2.9----30.12+0.02 72.3 76.5----
2024-04-19 09:54 am W 2.9 5.1----30.13- 71.6 76.5----
2024-04-19 09:48 am W 4.1 5.1----30.13- 71.2 76.5----
2024-04-19 09:42 amWNW 4.1 6.0----30.13- 71.1 76.5----
2024-04-19 09:36 am NW 4.1 5.1----30.13- 71.4 76.5----
2024-04-19 09:30 amNNW 5.1 5.1----30.13- 71.6 76.5----
2024-04-19 09:24 amNNW 5.1 8.9----30.12- 71.8 76.5----
2024-04-19 09:18 amWNW 5.1 6.0----30.12- 72.0 76.5----
2024-04-19 09:12 am W 2.9 6.0----30.12- 71.8 76.3----
2024-04-19 09:06 am W 5.1 7.0----30.12- 71.6 76.3----
2024-04-19 09:00 amWNW 6.0 7.0----30.12+0.04 71.2 76.3----
2024-04-19 08:54 am W 6.0 7.0----30.12- 71.2 76.3----
2024-04-19 08:48 amWNW 5.1 6.0----30.12- 70.9 76.3----
2024-04-19 08:42 am W 2.9 6.0----30.12- 70.5 76.3----
2024-04-19 08:36 am W 4.1 5.1----30.12- 70.2 76.3----
2024-04-19 08:30 am W 2.9 5.1----30.12- 69.8 76.3----
2024-04-19 08:24 amWNW 4.1 5.1----30.12- 69.4 76.3----
2024-04-19 08:18 am W 2.9 4.1----30.12- 69.3 76.3----
2024-04-19 08:12 am W 4.1 5.1----30.12- 69.3 76.3----
2024-04-19 08:06 am W 4.1 4.1----30.13- 69.3 76.3----
2024-04-19 08:00 am W 1.0 1.9----30.12+0.06 69.1 76.3----
2024-04-19 07:54 am W 1.9 4.1----30.13- 68.9 76.3----
2024-04-19 07:48 amWSW 1.9 4.1----30.12- 68.5 76.3----
2024-04-19 07:42 am- 0.0 1.9----30.12- 68.9 76.3----
2024-04-19 07:36 am- 0.0 2.9----30.12- 68.9 76.3----
2024-04-19 07:30 amWSW 1.0 4.1----30.11- 68.5 76.3----
2024-04-19 07:24 amWSW 1.9 5.1----30.11- 68.9 76.3----
2024-04-19 07:12 am S 2.9 4.1----30.11- 69.3 75.7----
2024-04-19 07:06 amSSW 1.0 7.0----30.10- 69.3 75.9----
2024-04-19 07:00 amWNW 6.0 7.0----30.10+0.04 69.3 76.3----
2024-04-19 06:54 amNNW 4.1 7.0----30.10- 69.6 76.3----
2024-04-19 06:48 am N 5.1 8.0----30.10- 69.8 76.3----
2024-04-19 06:42 amWNW 5.1 7.0----30.09- 69.4 76.3----
2024-04-19 06:36 amWNW 6.0 8.9----30.09- 68.9 76.3----
2024-04-19 06:30 am NW 8.0 9.9----30.09- 69.3 76.3----
2024-04-19 06:24 amWNW 8.9 9.9----30.08- 69.4 76.3----
2024-04-19 06:18 am NW 8.9 9.9----30.08- 69.4 76.3----
2024-04-19 06:12 am NW 8.9 9.9----30.08- 69.8 76.3----
2024-04-19 06:06 am NW 7.0 8.9----30.08- 70.5 76.3----
2024-04-19 06:00 am NW 5.1 6.0----30.08+0.03 70.5 76.3----
2024-04-19 05:54 amWNW 2.9 2.9----30.07- 70.5 76.3----